[[{"header":{"parameterUnit":"m.s-1","parameterCategory":1,"la1":30.2991,"la2":30.254,"lo1":-89.0895,"lo2":-89.0444,"dy":0.0017,"dx":0.0017,"nx":28,"ny":28,"refTime":"2025-05-15T03:00:00:Z","depth":0,"parameterNumber":2,"parameterNumberName":"U-component_of_WINDS"},"data":[0,0,0,0,0,0,0,0,0,0,0,0,0,0,0,0,0,0,0,0,0,0,0,0,0,0,0,0,0,0,0,0,0,0,0,0,0,0,0,0,0,0,0,0,0,0,0,0,0,0,0,0,0,0,0,0,0,0,0.1526,0.1527,0,0.1636,0.1637,0.1638,0.1664,0.1664,0.1663,0.1662,0.1775,0.1779,0.1783,0,0,0,0,0,0,0,0,0,0,0,0,0,0.1339,0.1343,0.1526,0.1527,0.1529,0.1635,0.1637,0.1638,0.1665,0.1664,0.1663,0.1662,0.1774,0.1778,0.1783,0,0,0,0,0,0,0,0,0,0,0,0,0,0.1432,0.1344,0.1526,0.1554,0.1558,0.1635,0.1637,0.1639,0.1665,0.1664,0.1663,0.1662,0.1773,0.1778,0.1784,0.184,0,0,0.18,0.1803,0,0,0,0,0,0,0,0,0.1427,0.1439,0.1549,0.1553,0.1557,0.1635,0.1613,0.1706,0.1665,0.1624,0.1662,0.1661,0.173,0.1739,0.1762,0.1845,0.185,0.1801,0.1804,0.1807,0.1808,0,0,0,0,0,0,0,0.142,0.1434,0.1569,0.155,0.1555,0.1562,0.1574,0.1631,0.1682,0.1628,0.163,0.1643,0.1732,0.1756,0.1765,0.1852,0.1801,0.1806,0.1809,0.1811,0.1987,0.1988,0,0,0,0,0,0,0.1409,0.1429,0.1566,0.1573,0.1488,0.1566,0.158,0.1611,0.1681,0.1691,0.1643,0.1643,0.1747,0.1758,0.1769,0.1839,0.1807,0.1812,0.1815,0.1985,0.1987,0.1988,0,0,0,0,0,0,0.1404,0.1421,0.1561,0.1501,0.152,0.1571,0.1606,0.1614,0.1639,0.1693,0.1702,0.1659,0.1747,0.1761,0.1822,0.1843,0.1814,0.1819,0.1984,0.1986,0.1988,0.198,0,0,0,0,0,0,0.1399,0.1419,0.1441,0.1501,0.1523,0.1612,0.1607,0.1617,0.1648,0.1649,0.171,0.1719,0.1747,0.1813,0.1827,0.1851,0.1824,0.1982,0.1985,0.1987,0.1979,0.1982,0.1984,0,0,0,0,0,0.1392,0.1434,0.1442,0.1458,0.1551,0.1614,0.1626,0.1657,0.165,0.1672,0.1707,0.1717,0.1839,0.1819,0.1835,0.186,0.1981,0.1984,0.1987,0.1978,0.1981,0.1984,0,0,0,0,0,0,0.1375,0.1443,0.1452,0.1514,0.1558,0.1618,0.1647,0.166,0.1706,0.1705,0.1742,0.1755,0.1814,0.1843,0.1821,0.1919,0.191,0.1916,0.1897,0.1901,0.1904,0.1896,0.1828,0,0,0,0,0,0.1378,0.1423,0.148,0.153,0.1552,0.1596,0.1624,0.1644,0.1691,0.1709,0.1749,0.1794,0.1842,0.1873,0.1921,0.1983,0.1997,0.2008,0.2011,0.2013,0.2018,0.2054,0.2059,0.1998,0.1998,0.1998,0,0,0.1385,0.1428,0.1455,0.1528,0.1564,0.161,0.1611,0.166,0.1694,0.1717,0.1777,0.1807,0.186,0.1922,0.1951,0.1948,0.2038,0.2017,0.2018,0.2022,0.2057,0.2063,0.2068,0.2,0.2,0.2,0,0,0.1423,0.146,0.1505,0.1542,0.1596,0.1625,0.1636,0.1695,0.1716,0.1776,0.1794,0.1836,0.1919,0.1956,0.1985,0.2036,0.2048,0.2051,0.2065,0.2099,0.2104,0.2109,0.2127,0.2133,0.2056,0.2056,0.2056,0,0.1425,0.1495,0.1527,0.1575,0.1607,0.163,0.1677,0.171,0.1777,0.1799,0.1795,0.1899,0.1936,0.2007,0.2019,0.2042,0.2056,0.2044,0.2101,0.2106,0.211,0.2128,0.2135,0.2056,0.2056,0.2056,0.2056,0,0.1495,0.1544,0.1574,0.1639,0.1674,0.1721,0.1761,0.1793,0.181,0.1839,0.1901,0.1946,0.2003,0.2021,0.2039,0.2095,0.2091,0.2093,0.2085,0.2116,0.2133,0.214,0.2056,0.2056,0.2056,0.2056,0,0,0.1524,0.1606,0.1617,0.1647,0.1709,0.1747,0.1795,0.1851,0.1878,0.1923,0.1965,0.2034,0.2037,0.207,0.2092,0.2121,0.2159,0.212,0.2122,0.2126,0.2225,0.2222,0.223,0.2167,0.2169,0.217,0.222,0,0.1569,0.1656,0.1687,0.1758,0.1804,0.1826,0.1868,0.1911,0.194,0.1982,0.2014,0.2063,0.2062,0.2083,0.2113,0.2148,0.218,0.2145,0.2206,0.2208,0.2192,0.2239,0.2237,0.2282,0.2227,0.2228,0.2229,0,0.1633,0.168,0.1756,0.1813,0.1833,0.187,0.1924,0.1965,0.2014,0.2033,0.207,0.209,0.2141,0.213,0.2201,0.2177,0.2204,0.2225,0.2227,0.2234,0.222,0.2247,0.2298,0.2304,0.224,0.2239,0.2239,0,0.1646,0.1728,0.1785,0.181,0.1877,0.1903,0.1933,0.1981,0.2012,0.2059,0.208,0.2132,0.2161,0.2201,0.2234,0.2223,0.2303,0.2294,0.232,0.2319,0.2336,0.2334,0.2391,0.2353,0.2353,0.2353,0.2353,0,0.1693,0.1739,0.1792,0.1826,0.1878,0.1913,0.1964,0.1995,0.2037,0.2078,0.2101,0.2139,0.2181,0.2224,0.225,0.2306,0.2318,0.2335,0.2342,0.2333,0.2331,0.2351,0.2349,0.2355,0.2354,0.2354,0.2354,0,0.1716,0.1754,0.1817,0.1876,0.1892,0.1928,0.1979,0.2013,0.2043,0.2095,0.2109,0.2156,0.2208,0.2245,0.2313,0.2331,0.239,0.2396,0.2373,0.2377,0.24,0.2398,0.2472,0.2484,0.2438,0.2438,0.2439,0,0.1744,0.1779,0.1843,0.1872,0.1902,0.1948,0.1981,0.2017,0.205,0.2109,0.2136,0.219,0.2235,0.2318,0.2358,0.241,0.2417,0.244,0.2425,0.2416,0.2418,0.2415,0.2419,0.2442,0.2442,0.2443,0.2443,0,0.1788,0.1805,0.1851,0.1904,0.1942,0.1985,0.2029,0.2052,0.2095,0.2131,0.2185,0.222,0.2289,0.2342,0.2398,0.2428,0.2443,0.2447,0.2456,0.2448,0.2433,0.2441,0.2379,0.2445,0.2445,0.2445,0.2445,0.2445,0.1814,0.1847,0.1897,0.1948,0.1985,0.2025,0.206,0.2095,0.2141,0.22,0.2218,0.2274,0.2323,0.2399,0.243,0.2474,0.2473,0.2486,0.2489,0.2492,0.2491,0.2426,0.2485,0.2485,0.2485,0.2485,0.2485,0,0.186,0.1893,0.194,0.2,0.204,0.205,0.2099,0.2132,0.2181,0.2225,0.2269,0.2331,0.2383,0.2428,0.2481,0.2508,0.2516,0.2521,0.252,0.2526,0.2489,0.2476,0.2514,0.2514,0.2514,0.2514,0.2514,0.2514,0.1888,0.1945,0.1967,0.2042,0.2076,0.2131,0.2158,0.2195,0.2231,0.2299,0.2342,0.2371,0.2416,0.2473,0.2521,0.2533,0.2551,0.2555,0.2568,0.2532,0.2529,0.2526,0.2514,0.2559,0.2559,0.2601,0.2602,0.2602]},{"header":{"parameterUnit":"m.s-1","parameterCategory":1,"la1":30.2991,"la2":30.254,"lo1":-89.0895,"lo2":-89.0444,"dy":0.0017,"dx":0.0017,"nx":28,"ny":28,"refTime":"2025-05-15T03:00:00:Z","depth":0,"parameterNumber":3,"parameterNumberName":"V-component_of_WINDS"},"data":[0,0,0,0,0,0,0,0,0,0,0,0,0,0,0,0,0,0,0,0,0,0,0,0,0,0,0,0,0,0,0,0,0,0,0,0,0,0,0,0,0,0,0,0,0,0,0,0,0,0,0,0,0,0,0,0,0,0,4.961,4.9611,0,4.9716,4.9717,4.9718,4.9736,4.9735,4.9734,4.9733,4.9836,4.984,4.9843,0,0,0,0,0,0,0,0,0,0,0,0,0,4.942,4.9423,4.961,4.9611,4.9613,4.9716,4.9717,4.9719,4.9736,4.9735,4.9734,4.9733,4.9835,4.9839,4.9844,0,0,0,0,0,0,0,0,0,0,0,0,0,4.9512,4.9424,4.961,4.9634,4.9637,4.9715,4.9717,4.9719,4.9736,4.9735,4.9734,4.9732,4.9834,4.9839,4.9844,4.9904,0,0,4.9861,4.9863,0,0,0,0,0,0,0,0,4.9506,4.9518,4.9629,4.9632,4.9636,4.9712,4.9688,4.9781,4.9737,4.9699,4.9733,4.9732,4.9795,4.9804,4.9826,4.9909,4.9913,4.9861,4.9864,4.9867,4.9868,0,0,0,0,0,0,0,4.95,4.9514,4.9652,4.9631,4.9635,4.9639,4.965,4.9706,4.9753,4.9702,4.9703,4.9716,4.9797,4.9821,4.9829,4.9915,4.9861,4.9866,4.9869,4.9871,5.0054,5.0056,0,0,0,0,0,0,4.949,4.9509,4.9648,4.9655,4.9567,4.9643,4.9656,4.9689,4.9753,4.9761,4.9717,4.9716,4.9813,4.9823,4.9833,4.9909,4.9867,4.9872,4.9875,5.0052,5.0054,5.0056,0,0,0,0,0,0,4.9486,4.9502,4.9644,4.9582,4.9601,4.9648,4.9684,4.9691,4.9716,4.9764,4.9772,4.9733,4.9812,4.9825,4.9887,4.9913,4.9874,4.9879,5.005,5.0053,5.0055,5.0061,0,0,0,0,0,0,4.948,4.9501,4.9524,4.9583,4.9604,4.9698,4.9686,4.9694,4.9726,4.9726,4.9781,4.9789,4.9812,4.9879,4.9892,4.9919,4.9883,5.0048,5.0052,5.0055,5.0058,5.0063,5.0067,0,0,0,0,0,4.9473,4.952,4.9525,4.9542,4.9635,4.9699,4.9711,4.9738,4.9727,4.9752,4.9783,4.9788,4.9908,4.9885,4.99,4.9929,5.0047,5.0051,5.0054,5.0056,5.0062,5.0067,0,0,0,0,0,0,4.946,4.9528,4.9535,4.9602,4.9645,4.9702,4.9733,4.9743,4.9788,4.9786,4.9816,4.9828,4.9889,4.9915,4.9889,4.9992,4.9976,4.9983,4.9973,4.9979,4.9983,4.9975,4.9887,0,0,0,0,0,4.9465,4.9514,4.9569,4.9623,4.9645,4.9685,4.9714,4.9732,4.9777,4.9794,4.983,4.9872,4.992,4.9951,4.9997,5.0062,5.0075,5.009,5.0094,5.0097,5.0103,5.0142,5.0149,5.0068,5.0068,5.0068,0,0,4.9476,4.9519,4.9547,4.9621,4.9657,4.9706,4.97,4.9751,4.9787,4.9801,4.9863,4.9891,4.994,5.0005,5.0035,5.0029,5.0129,5.0102,5.0104,5.0108,5.0146,5.0154,5.0161,5.0071,5.0071,5.007,0,0,4.9521,4.9557,4.9608,4.9644,4.9699,4.9727,4.9739,4.9795,4.9816,4.9879,4.9891,4.9934,5.0014,5.005,5.0079,5.014,5.0146,5.0154,5.0176,5.0214,5.022,5.0226,5.025,5.0258,5.016,5.016,5.016,0,4.9526,4.9601,4.9631,4.9684,4.9716,4.9734,4.9786,4.9819,4.9885,4.9907,4.9899,5.0003,5.0037,5.0112,5.0128,5.0149,5.0164,5.0148,5.0217,5.0223,5.0229,5.0252,5.0261,5.016,5.016,5.016,5.016,0,4.9607,4.9659,4.9692,4.976,4.9796,4.9847,4.9884,4.9918,4.9932,4.996,5.0025,5.0067,5.0124,5.0143,5.0156,5.022,5.0214,5.0211,5.0197,5.0237,5.0259,5.0268,5.0161,5.0161,5.0161,5.0161,0,0,4.9644,4.973,4.9742,4.9774,4.9837,4.9878,4.993,4.9987,5.0016,5.0061,5.0106,5.0176,5.0175,5.0207,5.0225,5.0258,5.0307,5.0251,5.0253,5.0261,5.0381,5.0384,5.0393,5.0311,5.0313,5.0314,5.0378,0,4.9697,4.9794,4.9824,4.9903,4.9953,4.9972,5.0017,5.0061,5.0089,5.0134,5.0164,5.0214,5.0207,5.0228,5.0261,5.0293,5.0331,5.0289,5.0353,5.0355,5.0341,5.0405,5.0407,5.0465,5.0386,5.0388,5.0389,0,4.9772,4.9823,4.9908,4.9968,4.999,5.0031,5.0088,5.013,5.018,5.0198,5.0237,5.0253,5.0308,5.029,5.0366,5.0337,5.0365,5.0385,5.0388,5.0396,5.0375,5.0415,5.0484,5.0493,5.0402,5.0401,5.04,0,4.9793,4.9882,4.9946,4.9972,5.0043,5.0072,5.0102,5.0151,5.0185,5.0234,5.0256,5.031,5.034,5.0381,5.0411,5.0395,5.0485,5.0469,5.0502,5.0501,5.052,5.0519,5.0596,5.0536,5.0536,5.0536,5.0536,0,4.985,4.9902,4.9957,4.9996,5.0055,5.0089,5.0146,5.0177,5.0221,5.0267,5.0285,5.0327,5.0364,5.041,5.0434,5.0495,5.0507,5.0523,5.0529,5.0523,5.0521,5.0541,5.0539,5.0539,5.0538,5.0538,5.0537,0,4.9884,4.9922,4.9993,5.0056,5.0073,5.0114,5.0168,5.0206,5.0236,5.0293,5.0308,5.0354,5.041,5.0445,5.0514,5.053,5.0598,5.0602,5.0582,5.0585,5.0616,5.0614,5.071,5.0725,5.0655,5.0655,5.0656,0,4.9918,4.9959,5.0028,5.0061,5.0092,5.0144,5.018,5.0215,5.0251,5.0313,5.0344,5.0402,5.0451,5.0539,5.0578,5.0632,5.0638,5.0668,5.0646,5.0639,5.064,5.0638,5.0643,5.0672,5.0673,5.0673,5.0673,0,4.9975,4.9993,5.0045,5.0104,5.0147,5.0195,5.0242,5.0267,5.0311,5.035,5.0409,5.0447,5.0521,5.0578,5.0636,5.0667,5.0678,5.068,5.0691,5.0685,5.0673,5.0682,5.0594,5.0678,5.0677,5.0677,5.0677,5.0677,5.0011,5.005,5.0105,5.0163,5.0203,5.0248,5.0288,5.0324,5.0375,5.0439,5.0456,5.0519,5.0569,5.0649,5.0681,5.073,5.0725,5.074,5.0744,5.0748,5.075,5.0665,5.074,5.074,5.074,5.074,5.074,0,5.0071,5.0108,5.0161,5.0229,5.0275,5.0283,5.0337,5.0374,5.0429,5.0477,5.0525,5.0594,5.0651,5.0695,5.0753,5.0784,5.079,5.0798,5.0796,5.0804,5.0749,5.0735,5.0792,5.0792,5.0792,5.0792,5.0792,5.0792,5.0108,5.0174,5.0199,5.0286,5.0323,5.0386,5.0416,5.0457,5.0496,5.0573,5.0621,5.0651,5.0698,5.076,5.0812,5.0824,5.0844,5.0851,5.0864,5.0813,5.0807,5.0802,5.0789,5.0855,5.0856,5.0914,5.0915,5.0915]}]]